Find Starlink 1504

NORAD ID: 45746 Int'l Des: 2020-038 Owner: SPXS Country: US Constellation: starlink operational
LEOCIRCULAR

リアルタイム位置

3D地球を読み込み中...

Starlink 1504について

説明を読み込み中...

次回通過

Passes for default location (London). Set your location on the main map for personalized predictions.

高度履歴

Loading altitude history...

軌道要素

1 45746U 20038S 26125.56221407 .00037816 00000-0 51801-3 0 9995
2 45746 53.0210 226.9938 0002310 18.2211 341.8882 15.57037717326366
Epoch: May 5, 2026 • Age: 19 hours

現在のステータス

高度 401.9 km
速度 7.67 km/s
衛星直下点 -16.01°S, 58.75°E
打ち上げ日 Jun 13, 2020
運用期間 5.8 years
タイプ internet

技術仕様

分類 Payload
質量 260.00 kg
乾燥質量 248.00 kg
総質量 260.00 kg
長さ 0.20 m
直径 2.80 m
スパン 9.00 m
形状 Box + pan
製造者 SPXS
バスタイプ Starlink
フェーズステータス In Orbit
所有者/国 SPXS/US

Most Searched